Weather History for KLBF - April, 2014

Change the Weather History Date:

Friday, April 18, 2014

  Actual Average Record
Temperature  
Mean Temperature 56 °F 48 °F  
Max Temperature 73 °F 63 °F 92 °F (1948)
Min Temperature 38 °F 34 °F 17 °F (1953)
Degree Days  
Heating Degree Days 9 17  
Month to date heating degree days 364 351  
Since 1 July heating degree days 6429 6216  
Cooling Degree Days 0 0  
Month to date cooling degree days 0 0  
Year to date cooling degree days 0 0  
Growing Degree Days 6 (Base 50)    
Moisture  
Dew Point 39 °F    
Average Humidity 58    
Maximum Humidity 85    
Minimum Humidity 31    
Precipitation  
Precipitation 0.00 in 0.08 in 4.11 in (1942)
Month to date precipitation 0.14 1.21  
Year to date precipitation 1.98 3.10  
Snow  
Snow 0.00 in 0.20 in 2.00 in (1920)
Month to date snowfall 1.1 2.5  
Since 1 July snowfall 29.8 27.8  
Snow Depth 0.00 in    
Sea Level Pressure  
Sea Level Pressure 29.99 in    
Wind  
Wind Speed 17 mph (South)    
Max Wind Speed 29 mph    
Max Gust Speed 38 mph    
Visibility 10 miles    
Events      
T = Trace of Precipitation, MM = Missing Value Source: NWS Daily Summary

Daily Weather History Graph

Daily Weather History Graph

Search for Another Location

Airport or City:

Trip Planner

Search our weather history database for the weather conditions in past years. The results will help you decide how hot, cold, wet, or windy it might be!

Date:

Astronomy

Apr. 18, 2014 Rise Set
Actual Time 6:58 AM CDT 8:25 PM CDT
Civil Twilight 6:29 AM CDT 8:54 PM CDT
Nautical Twilight 5:55 AM CDT 9:29 PM CDT
Astronomical Twilight 5:18 AM CDT 10:06 PM CDT
Moon No Moon Rise 9:21 AM CDT (4/18)
Length of Visible Light 14h 24m
Length of Day
13h 27m
Waning Gibbous, 87% of the Moon is Illuminated
Apr 18
Waning Gibbous
Apr 22
Last Quarter
Apr 29
New
May 6
First Quarter
May 14
Full

Hourly Weather History & Observations

Time (CDT) Temp. Windchill Dew Point Humidity Pressure Visibility Wind Dir Wind Speed Gust Speed Precip Events Conditions
12:53 AM 42.1 °F 37.1 °F 32.0 °F 67% 30.15 in 10.0 mi SE 8.1 mph - N/A   Clear
1:53 AM 43.0 °F 37.2 °F 35.1 °F 74% 30.14 in 10.0 mi South 10.4 mph - N/A   Clear
2:53 AM 43.0 °F 36.4 °F 37.0 °F 80% 30.11 in 10.0 mi South 12.7 mph - N/A   Clear
3:53 AM 41.0 °F 34.3 °F 36.0 °F 82% 30.10 in 10.0 mi South 11.5 mph - N/A   Clear
4:53 AM 41.0 °F 33.9 °F 36.0 °F 82% 30.08 in 10.0 mi South 12.7 mph - N/A   Clear
5:53 AM 41.0 °F 33.1 °F 36.0 °F 82% 30.06 in 10.0 mi South 15.0 mph - N/A   Clear
6:53 AM 39.0 °F 31.8 °F 35.1 °F 86% 30.07 in 9.0 mi South 11.5 mph 21.9 mph N/A   Clear
7:53 AM 39.0 °F 30.6 °F 36.0 °F 89% 30.08 in 7.0 mi South 15.0 mph - N/A   Clear
8:53 AM 43.0 °F 35.7 °F 37.0 °F 80% 30.08 in 10.0 mi South 15.0 mph - N/A   Clear
9:53 AM 48.9 °F - 37.9 °F 66% 30.06 in 10.0 mi SSW 13.8 mph - N/A   Clear
10:53 AM 57.0 °F - 37.9 °F 49% 30.04 in 10.0 mi South 19.6 mph 29.9 mph N/A   Clear
11:53 AM 61.0 °F - 39.0 °F 44% 30.01 in 10.0 mi South 19.6 mph 25.3 mph N/A   Clear
12:53 PM 66.0 °F - 39.9 °F 38% 29.98 in 10.0 mi South 21.9 mph 33.4 mph N/A   Clear
1:53 PM 68.0 °F - 39.0 °F 35% 29.94 in 10.0 mi South 25.3 mph 33.4 mph N/A   Clear
2:53 PM 70.0 °F - 41.0 °F 35% 29.93 in 10.0 mi South 19.6 mph 26.5 mph N/A   Clear
3:53 PM 71.1 °F - 41.0 °F 34% 29.90 in 10.0 mi South 23.0 mph 32.2 mph N/A   Clear
4:53 PM 73.0 °F - 41.0 °F 31% 29.86 in 10.0 mi South 24.2 mph 35.7 mph N/A   Clear
5:53 PM 72.0 °F - 42.1 °F 34% 29.85 in 10.0 mi SSE 21.9 mph 31.1 mph N/A   Clear
6:53 PM 69.8 °F - 42.8 °F 38% 29.87 in 10.0 mi SSE 17.3 mph 28.8 mph N/A   Clear
7:53 PM 66.9 °F - 43.0 °F 42% 29.86 in 10.0 mi SSE 9.2 mph 25.3 mph N/A   Clear
8:53 PM 64.0 °F - 43.0 °F 46% 29.88 in 10.0 mi SSE 13.8 mph - N/A   Clear
9:53 PM 63.0 °F - 43.0 °F 48% 29.87 in 10.0 mi SSE 17.3 mph 24.2 mph N/A   Clear
10:53 PM 62.1 °F - 42.1 °F 48% 29.84 in 10.0 mi South 25.3 mph 38.0 mph N/A   Clear
11:53 PM 60.1 °F - 41.0 °F 49% 29.83 in 10.0 mi South 21.9 mph 32.2 mph N/A   Clear